SENTINEL-2C

Last updated on Fri Jul 10 2026 00:02:50 GMT+0000 (Coordinated Universal Time)

1 60989U 24157A 26190.20051958 .00000052 00000+0 36616-4 0 9991 2 60989 98.5685 264.6704 0000939 97.5512 262.5777 14.30814617 96134
UTC large
Height (km)
Speed (km/s)
/
Latitude / Longitude
Inclination (degrees)
Orbital Period (minutes)
Azimuth
Elevation
Range (km)
Doppler Factor

Next 0 passes for location: London (51.5072 / 0.1276)

No passes found over London.
SENTINEL-2C